User: anonymous   Login
Location: Albany
(35.0000°S, 118.0000°E)
Time: 01:59:02
(UTC-04:00)
Language:

CZ-4B R/B - Orbit

View from above orbital plane
View from above orbital plane
View from above satellite
View from above satellite

Ground track
Ground track

The orbit data is extracted from the following two-line orbital elements,

1 33410U 08053C   16243.88810696  .00000353  00000-0  30648-4 0  9995
2 33410  97.6884 211.9245 0122902  85.0912 276.4329 14.97831486427322
Epoch (UTC): 30 August 2016 21:18:52
Eccentricity: 0.0122902
inclination: 97.6884°
perigee height: 488 km
apogee height: 659 km
right ascension of ascending node: 211.9245°
argument of perigee: 85.0912°
revolutions per day: 14.97831486
mean anomaly at epoch: 276.4329°
orbit number at epoch: 42732

The dashed part of the orbit path shows where the satellite is in the earth's shadow,  

DLR